Flag Weather past 2 weeks in Paphos, Cyprus

Now
68 °F

Passing clouds.


Feels Like: 68 °F
Forecast: 53 / 63 °F
Wind: 6 mph from South

Location: Paphos Airport

Current Time: Nov 24, 2014 at 11:26:57 AM

Latest Report: Nov 24, 2014 at 11:00 AM


Visibility: N/A

Pressure: 29.98 "Hg

Humidity: 46%

Dew point: 46 °F

Location of PaphosLocation

Historic Weather in Paphos — Graph

°F

Paphos temperature yesterday

Maximum temperature yesterday: 68 °F (at 11:00 AM)
Minimum temperature yesterday: 52 °F (at 3:30 AM)
Average temperature yesterday: 60 °F

Past Weeks' High & Low Weather Summary

 TemperatureHumidityPressure
High81 °F (Nov 9, 11:00 AM)94% (Nov 16, 3:00 AM)30.21 "Hg (Nov 16, 3:00 AM)
Low52 °F (Nov 23, 3:30 AM)30% (Nov 9, 11:00 AM)29.83 "Hg (Nov 15, 3:00 PM)
Average66 °F64%29.99 "Hg
* Reported Nov 9 10:00 AM — Nov 24 10:30 AM, Paphos, Weather by CustomWeather, © 2014

Note: Actual official high and low records may vary slightly from our data, if they occured in-between our weather recording intervals... More about our weather records

Advertising

Paphos weather history for previous 24 hours

 ConditionsComfort  
Time TempWeatherWind HumidityBarometerVisibility
10:30 AM
Nov 24
68 °FPassing clouds.5 mph46%29.98 "HgN/A
10:00 AM68 °FPassing clouds.3 mph43%29.98 "HgN/A
9:30 AM66 °FPassing clouds.6 mph49%29.98 "HgN/A
9:00 AM66 °FPassing clouds.6 mph49%29.98 "HgN/A
8:30 AM63 °FPassing clouds.8 mph56%29.98 "HgN/A
8:00 AM59 °FPassing clouds.9 mph59%29.95 "HgN/A
7:30 AM57 °FPassing clouds.7 mph63%29.95 "HgN/A
7:00 AM55 °FPassing clouds.7 mph67%29.95 "HgN/A
6:30 AM54 °FPassing clouds.7 mph67%29.95 "HgN/A
6:00 AM54 °FPassing clouds.8 mph67%29.95 "HgN/A
5:30 AM54 °FPassing clouds.6 mph67%29.92 "HgN/A
5:00 AM54 °FPassing clouds.6 mph67%29.92 "HgN/A
4:30 AM54 °FCool.7 mph67%29.92 "HgN/A
4:00 AM54 °FCool.6 mph67%29.92 "HgN/A
3:30 AM54 °FCool.10 mph67%29.92 "HgN/A
3:00 AM55 °FCool.9 mph63%29.92 "HgN/A
2:30 AM55 °FCool.7 mph67%29.92 "HgN/A
1:30 AM55 °FPassing clouds.5 mph67%29.95 "HgN/A
1:00 AM55 °FPassing clouds.7 mph67%29.95 "HgN/A
12:30 AM55 °FPassing clouds.7 mph67%29.95 "HgN/A
12:00 AM55 °FPassing clouds.9 mph72%29.95 "HgN/A
11:30 PM
Nov 23
55 °FPassing clouds.8 mph72%29.95 "HgN/A
11:00 PM55 °FPassing clouds.7 mph72%29.95 "HgN/A
10:30 PM55 °FPassing clouds.6 mph72%29.95 "HgN/A
10:00 PM55 °FPassing clouds.6 mph77%29.95 "HgN/A
9:30 PM59 °FPassing clouds.7 mph68%29.95 "HgN/A
9:00 PM59 °FPassing clouds.8 mph68%29.95 "HgN/A
8:30 PM57 °FPassing clouds.6 mph72%29.95 "HgN/A
8:00 PM57 °FPassing clouds.6 mph72%29.95 "HgN/A
7:30 PM59 °FPassing clouds.7 mph68%29.95 "HgN/A
7:00 PM61 °FPassing clouds.8 mph63%29.95 "HgN/A
6:30 PM61 °FPassing clouds.9 mph63%29.95 "HgN/A
6:00 PM61 °FPassing clouds.6 mph59%29.95 "HgN/A
5:30 PM63 °FPassing clouds.5 mph56%29.95 "HgN/A
5:00 PM64 °FPassing clouds.5 mph49%29.92 "HgN/A
4:30 PM66 °FPassing clouds.2 mph46%29.92 "HgN/A
4:00 PM68 °FPassing clouds.No wind43%29.92 "HgN/A
3:30 PM68 °FPassing clouds.3 mph46%29.92 "HgN/A
3:00 PM68 °FPassing clouds.7 mph53%29.95 "HgN/A
2:30 PM68 °FPassing clouds.8 mph46%29.95 "HgN/A
2:00 PM68 °FPassing clouds.10 mph49%29.95 "HgN/A
1:30 PM68 °FPassing clouds.9 mph43%29.95 "HgN/A
1:00 PM68 °FPassing clouds.8 mph43%29.95 "HgN/A
12:30 PM68 °FPassing clouds.7 mph49%29.95 "HgN/A
12:00 PM68 °FScattered clouds.8 mph53%29.98 "HgN/A
11:30 AM68 °FScattered clouds.3 mph53%29.98 "HgN/A
11:00 AM68 °FScattered clouds.7 mph53%30.01 "HgN/A
Weather by CustomWeather, © 2014

See weather overviewHow to use our weather pages